OneWeb SL0570

operational
NORAD ID: 55149 Int'l Des: 2023-004 Owner: ONEWEBN Country: UK Constellation: oneweb
LEOCIRCULARPOLARONEWEB_TYPE

OneWeb SL0570について

説明を読み込み中...

リアルタイム位置

3D地球を読み込み中...

次回通過

高度履歴

Altitude vs Time

uPlot chart will show altitude changes over time

軌道要素

1 55149U 23004K 25351.63093873 .00000002 00000-0 -26514-4 0 9993
2 55149 87.9167 11.5418 0001451 107.2326 252.8965 13.18684390145769
Epoch: Dec 17, 2025 • Age: 19 hours

現在のステータス

高度 1200.7 km
速度 7.26 km/s
衛星直下点 67.73°N, 143.77°E
打ち上げ日 Jan 10, 2023
運用期間 2.9 years
タイプ internet

技術仕様

分類 Payload
質量 148.00 kg
乾燥質量 140.00 kg
総質量 148.00 kg
長さ 1.30 m
直径 1.00 m
スパン 5.00 m
形状 Trapezoid+2 pan
製造者 ONEWUS
バスタイプ ARROW
フェーズステータス In Orbit
所有者/国 ONEWEBN/UK

大規模コンステレーション

Loading constellations...